Casement, Ireland

2:29 PM IST on September 22, 2017 (GMT +0100)
Casement Air Base

Weather History for EIME - September, 2017

Change the Weather History Date:

Thursday, September 14, 2017

  Actual Average (EIDW) Record (EIDW)
Temperature  
Mean Temperature 51 °F -  
Max Temperature 59 °F 58 °F 73 °F (2003)
Min Temperature 43 °F 45 °F 40 °F (2013)
Degree Days  
Heating Degree Days 14    
Growing Degree Days 1 (Base 50)    
Moisture  
Dew Point 45 °F    
Average Humidity 78    
Maximum Humidity 96    
Minimum Humidity 47    
Precipitation  
Precipitation 0.03 in - - ()
Sea Level Pressure  
Sea Level Pressure 29.91 in    
Wind  
Wind Speed 13 mph ()    
Max Wind Speed 20 mph    
Max Gust Speed 26 mph    
Visibility 9.3 miles    
Events Rain    
Averages and records for this station are not official NWS values.
T = Trace of Precipitation, MM = Missing Value Source: Averaged Metar Reports

Daily Weather History Graph

Daily Weather History Graph

Search for Another Location

Airport or City:

Trip Planner

Search our weather history database for the weather conditions in past years. The results will help you decide how hot, cold, wet, or windy it might be!

Date:

Astronomy

Sep. 14, 2017 Rise Set
Actual Time 6:57 AM IST 7:43 PM IST
Civil Twilight 6:22 AM IST 8:18 PM IST
Nautical Twilight 5:40 AM IST 9:00 PM IST
Astronomical Twilight 4:54 AM IST 9:45 PM IST
Moon 12:05 AM IST (9/14) 4:24 PM IST (9/14)
Length of Visible Light 13h 55m
Length of Day
12h 45m
Last Quarter, 37% of the Moon is Illuminated
Sep 14
Last Quarter
Sep 20
New
Sep 28
First Quarter
Oct 5
Full
Oct 12
Last Quarter

Hourly Weather History & Observations

Time (IST) Temp. Windchill Dew Point Humidity Pressure Visibility Wind Dir Wind Speed Gust Speed Precip Events Conditions
12:00 AM 45 °F - 42 °F 87% 29.65 in 12 mi WSW 13.4 mph - -   Scattered Clouds
1:00 AM 44 °F - 42 °F 90% 29.68 in 12 mi WSW 13.4 mph - -   Scattered Clouds
1:00 AM 44.6 °F 38.4 °F 42.8 °F 93% 29.65 in 6.2 mi WSW 12.7 mph - N/A   Partly Cloudy
2:00 AM 45 °F - 44 °F 92% 29.70 in 12 mi West 15.7 mph - -   Mostly Cloudy
3:00 AM 46 °F - 45 °F 93% 29.72 in 12 mi West 15.7 mph - -   Mostly Cloudy
3:00 AM 46.4 °F 40.1 °F 44.6 °F 93% 29.71 in 6.2 mi West 15.0 mph - N/A   Mostly Cloudy
4:00 AM 46 °F - 44 °F 91% 29.74 in 12 mi West 13.4 mph - -   Partly Cloudy
4:00 AM 46.4 °F 40.4 °F 44.6 °F 93% 29.71 in 6.2 mi West 13.8 mph - N/A   Scattered Clouds
5:00 AM 46 °F - 45 °F 96% 29.77 in 12 mi West 13.4 mph - -   Mostly Cloudy
5:00 AM 46.4 °F 40.7 °F 44.6 °F 93% 29.74 in 6.2 mi West 12.7 mph - N/A   Scattered Clouds
6:00 AM 46 °F - 45 °F 95% 29.79 in 12 mi West 11.2 mph - -   Mostly Cloudy
7:00 AM 47 °F - 46 °F 93% 29.83 in 19 mi West 11.2 mph - -   Scattered Clouds
7:00 AM 48.2 °F - 46.4 °F 93% 29.80 in 6.2 mi West 11.5 mph - N/A   Partly Cloudy
8:00 AM 48 °F - 46 °F 92% 29.86 in 25 mi West 11.2 mph - -   Scattered Clouds
8:00 AM 48.2 °F - 46.4 °F 93% 29.83 in 6.2 mi West 11.5 mph - N/A   Partly Cloudy
9:00 AM 50 °F - 48 °F 89% 29.89 in 25 mi West 13.4 mph - -   Mostly Cloudy
9:00 AM 50.0 °F - 48.2 °F 94% 29.86 in 6.2 mi West 13.8 mph - N/A   Mostly Cloudy
9:30 AM 51.8 °F - 48.2 °F 88% 29.89 in 6.2 mi WNW 15.0 mph - N/A   Scattered Clouds
10:00 AM 53 °F - 48 °F 78% 29.92 in 28 mi West 13.4 mph - -   Partly Cloudy
10:30 AM 53.6 °F - 46.4 °F 77% 29.92 in 6.2 mi NW 13.8 mph - N/A   Mostly Cloudy
11:00 AM 54 °F - 46 °F 65% 29.95 in 28 mi NW 13.4 mph - -   Mostly Cloudy
11:00 AM 55.4 °F - 46.4 °F 72% 29.95 in 6.2 mi WNW 12.7 mph - N/A   Mostly Cloudy
12:00 PM 55 °F - 45 °F 61% 29.97 in 19 mi WNW 13.4 mph - - Rain Light Rain Showers
12:00 PM 55.4 °F - 44.6 °F 67% 29.95 in 6.2 mi WNW 12.7 mph - N/A   Mostly Cloudy
12:30 PM 57.2 °F - 44.6 °F 63% 29.95 in 6.2 mi WNW 13.8 mph - N/A   Mostly Cloudy
1:00 PM 57 °F - 43 °F 50% 29.98 in 22 mi NW 13.4 mph - -   Partly Cloudy
1:00 PM 57.2 °F - 42.8 °F 59% 29.98 in 6.2 mi NW 12.7 mph - N/A   Scattered Clouds
1:30 PM 59.0 °F - 46.4 °F 63% 29.98 in 6.2 mi WNW 17.3 mph - N/A   Mostly Cloudy
2:00 PM 58 °F - 43 °F 47% 29.99 in 25 mi NW 17.9 mph - -   Mostly Cloudy
2:00 PM 59.0 °F - 42.8 °F 55% 29.98 in 6.2 mi NW 18.4 mph - N/A   Mostly Cloudy
2:30 PM 60.8 °F - 44.6 °F 55% 29.98 in 6.2 mi WNW 19.6 mph - N/A   Partly Cloudy
3:00 PM 58 °F - 43 °F 47% 29.99 in 16 mi West 20.1 mph - - Rain Light Rain Showers
3:00 PM 59.0 °F - 42.8 °F 55% 29.98 in 6.2 mi West 19.6 mph - N/A Rain Light Rain Showers
3:30 PM 57.2 °F - 48.2 °F 72% 29.98 in 6.2 mi West 11.5 mph - N/A   Partly Cloudy
4:00 PM 58 °F - 46 °F 55% 29.99 in 19 mi WNW 17.9 mph - - Rain Light Rain Showers
4:00 PM 59.0 °F - 46.4 °F 63% 29.98 in 6.2 mi WNW 18.4 mph - N/A   Partly Cloudy
4:30 PM 53.6 °F - 44.6 °F 72% 29.98 in 6.2 mi WNW 15.0 mph 26.5 mph N/A   Mostly Cloudy
6:00 PM 53 °F - 44 °F 64% 30.02 in 22 mi WNW 15.7 mph - -   Scattered Clouds
6:00 PM 53.6 °F - 44.6 °F 72% 30.01 in 6.2 mi WNW 15.0 mph - N/A   Mostly Cloudy
7:00 PM 52 °F - 44 °F 68% 30.02 in 19 mi WNW 13.4 mph - -   Partly Cloudy
7:00 PM 51.8 °F - 44.6 °F 76% 30.01 in 6.2 mi WNW 12.7 mph - N/A   Mostly Cloudy
8:00 PM 51 °F - 46 °F 77% 30.03 in 19 mi West 13.4 mph - - Rain Light Rain Showers
8:00 PM 51.8 °F - 46.4 °F 82% 30.01 in 6.2 mi West 12.7 mph - N/A   Mostly Cloudy
9:00 PM 49 °F - 47 °F 91% 30.04 in 12 mi West 11.2 mph - - Rain Light Rain Showers
9:00 PM 50.0 °F - 46.4 °F 87% 30.01 in 6.2 mi West 11.5 mph - N/A   Mostly Cloudy
10:00 PM 49 °F - 47 °F 88% 30.04 in 12 mi West 11.2 mph - - Rain Light Rain Showers
10:00 PM 48.2 °F - 46.4 °F 93% 30.04 in 6.2 mi West 10.4 mph - N/A   Mostly Cloudy
11:00 PM 49 °F - 47 °F 88% 30.05 in 12 mi West 8.9 mph - -   Mostly Cloudy
11:00 PM 50.0 °F - 46.4 °F 87% 30.04 in 6.2 mi West 9.2 mph - N/A   Mostly Cloudy